Location: Waldport
(44.4270°N, 124.0680°W)
Time: 01:01:35
(UTC-07:00)

Daily predictions for brighter satellites

Satellite Brightness Start Highest point End
(mag) Time Altitude Azimuth Time Altitude Azimuth Time Altitude Azimuth
Cosmos 2237 Rocket 3.4 00:08:31 31° ENE 00:08:31 31° ENE 00:11:42 10° NE
CZ-2C R/B 3.7 00:12:38 45° NNE 00:12:38 45° NNE 00:16:05 10° N
COSMOS 2455 4.2 00:11:49 10° NNW 00:17:03 30° NE 00:18:22 27° ENE
ATLAS 3B R/B 3.9 00:25:01 10° NW 00:30:01 27° WSW 00:30:01 27° WSW
Cosmos 1818 4.1 00:32:11 56° N 00:32:11 56° N 00:36:48 10° NNE
Cosmos 2184 Rocket 4.4 00:32:49 50° ENE 00:32:49 50° ENE 00:37:56 10° NNE
Cosmos 968 Rocket 4.2 00:28:50 10° NNW 00:32:37 49° N 00:32:37 49° N
Meteor 2-5 Rocket 4.3 00:32:59 10° N 00:38:01 53° NE 00:38:01 53° NE
Cosmos 2074 Rocket 4.3 00:39:39 59° NE 00:39:39 59° NE 00:45:04 10° NNE
NOSS 3-2 (C) 3.9 00:33:21 10° NW 00:40:51 71° WSW 00:41:02 71° SW
Cosmos 2278 Rocket 2.7 00:37:36 10° NNW 00:42:02 54° NW 00:42:02 54° NW
NOSS 0 Rocket 4.1 00:46:22 72° N 00:46:22 72° N 00:52:03 10° NNE
Mayak 1.1 00:44:38 10° NNE 00:46:00 19° NNE 00:46:00 19° NNE
BREEZE-M DEB (TANK) 3.9 00:41:09 10° W 00:53:02 57° NNW 00:53:57 49° NNE
ALOS 2 4.4 00:58:48 29° NNW 00:58:48 29° NNW 01:01:03 10° NNW
ATLAS CENTAUR R/B 3.4 00:58:03 10° NW 01:08:44 54° NNE 01:09:12 52° NE
NOSS 3-4 (A) 3.8 01:09:05 62° NW 01:09:14 62° NW 01:15:44 10° NNE
NOSS 3-4 (C) 3.7 01:09:13 63° NW 01:09:20 63° NW 01:15:50 10° NNE
Cosmos 2219 Rocket 3.4 01:10:36 34° WNW 01:11:03 35° NW 01:16:14 10° N
SL-16 R/B 3.1 01:13:08 42° NE 01:13:08 42° NE 01:16:58 10° NNE
CZ-2C R/B 3.6 01:15:35 10° N 01:20:00 40° NW 01:20:00 40° NW
Cosmos 2333 Rocket 3.3 01:21:34 35° WNW 01:21:49 35° NW 01:27:00 10° NNE
GEOS 3 Rocket 4.3 01:24:12 52° N 01:24:12 52° N 01:28:31 10° NNW
CENTAUR R/B 2.9 01:17:48 10° NW 01:25:43 87° SW 01:26:16 80° SSE
ATLAS CENTAUR R/B 4.1 01:23:06 10° NNW 01:23:47 14° NNW 01:23:47 14° NNW
USA 215 3.3 01:29:52 67° WNW 01:29:52 67° WNW 01:35:30 10° NW
Cosmos 2154 Rocket 4.1 01:31:10 69° NNE 01:31:10 69° NNE 01:36:37 10° N
Lacrosse 5 4.1 01:40:09 10° WNW 01:44:08 22° NNW 01:48:07 10° NE
Cosmos 1943 Rocket 4.2 01:44:53 10° N 01:49:08 22° NE 01:52:01 15° E
Cosmos 2237 Rocket 3.5 01:50:19 31° WNW 01:50:35 31° NW 01:55:34 10° N
Cosmos 2369 Rocket 3.3 01:48:39 10° NNW 01:53:57 38° NE 01:54:47 36° ENE
ADEOS Rocket 4.3 01:57:03 10° NE 02:01:13 25° E 02:01:13 25° E
COSMOS 2455 3.7 01:57:27 10° NW 02:01:28 41° WNW 02:01:28 41° WNW
Resurs 1-4 Rocket 4.5 02:06:40 10° ENE 02:08:36 12° E 02:09:20 12° E
SL-8 Rocket 4.0 02:09:16 74° ENE 02:09:16 74° ENE 02:15:09 10° N
CZ-3A R/B 4.2 01:55:39 10° WNW 02:10:47 63° NNE 02:16:19 10° ESE
Cosmos 2218 Rocket 4.1 02:11:08 67° E 02:11:08 67° E 02:17:22 10° NNE
CZ-2D R/B 4.4 02:09:54 10° ENE 02:12:21 13° E 02:13:14 13° E
Cosmos 1898 Rocket 4.1 02:08:50 10° NNW 02:13:22 53° NNE 02:13:22 53° NNE
Cosmos 1937 Rocket 4.4 02:10:12 10° N 02:15:16 43° ENE 02:15:21 43° ENE
Mayak 1.3 02:21:16 10° NNW 02:22:40 15° NW 02:22:40 15° NW
Cosmos 1953 4.4 02:26:38 26° N 02:26:38 26° N 02:28:28 10° N
Meteor 2-14 Rocket 4.5 02:24:52 74° ENE 02:24:52 74° ENE 02:30:49 10° NNE
Cosmos 2341 Rocket 4.4 02:27:40 51° WNW 02:27:40 51° WNW 02:33:30 10° N
Meteor 2-15 4.4 02:23:18 10° N 02:28:55 72° NW 02:28:55 72° NW
BREEZE-M DEB (TANK) 3.6 02:35:32 65° ESE 02:35:32 65° ESE 02:47:57 10° ENE
Cosmos 2298 Rocket 4.3 02:32:42 10° NNW 02:37:31 65° NNE 02:37:31 65° NNE
Cosmos 990 Rocket 4.3 02:36:54 10° NNW 02:41:53 62° NE 02:41:53 62° NE
Cosmos 1603 3.8 02:46:31 65° NW 02:46:31 65° NW 02:51:49 10° NNE
Cosmos 1814 Rocket 4.4 02:49:30 58° E 02:49:30 58° E 02:54:15 10° NNE
Cosmos 1339 Rocket 4.3 02:43:30 10° N 02:49:39 81° W 02:49:40 81° W
SL-16 R/B 3.8 02:54:59 23° WNW 02:55:56 24° NW 03:00:27 10° N
Cosmos 864 Rocket 4.4 02:56:05 68° W 02:56:09 68° W 03:02:19 10° N
Cosmos 841 Rocket 4.1 02:59:10 47° ESE 02:59:10 47° ESE 03:04:04 10° NNE
Cosmos 332 Rocket 4.2 03:01:22 59° NNW 03:01:22 59° NNW 03:05:35 10° NNE
Cosmos-2242 3.8 03:02:27 49° N 03:02:27 49° N 03:05:42 10° N
ARIANE 5 R/B 3.9 02:57:26 10° NE 03:02:01 30° E 03:03:07 27° ESE
Cosmos 2366 rocket 4.1 03:02:38 57° W 03:02:52 58° WNW 03:09:08 10° N
Cosmos 1727 Rocket 4.0 02:58:09 10° NNW 03:04:11 63° W 03:04:11 63° W
BREEZE M DEB (TANK) 3.8 03:06:43 32° ENE 03:06:43 32° ENE 03:10:22 10° E
NPP 3.6 03:01:36 10° NNE 03:07:01 76° ESE 03:07:12 76° SE
H-2A R/B 4.3 03:05:10 10° N 03:06:57 21° NNW 03:06:57 21° NNW
Gblst 52 Del rocket 4.2 03:08:29 71° SSE 03:08:31 71° SE 03:14:08 10° ENE
Helios 1A Rocket 3.9 03:05:06 10° N 03:08:01 45° N 03:08:01 45° N
IRS-1C 4.1 03:13:22 10° NNE 03:18:44 70° ESE 03:19:18 64° SE
COBE Rocket 4.1 03:16:55 10° N 03:21:46 60° WNW 03:21:46 60° WNW
IRS-1D 4.1 03:17:41 10° NNE 03:22:41 51° E 03:23:38 45° SE
Cosmos 371 Rocket 3.8 03:24:53 49° NW 03:24:53 49° NW 03:29:20 10° N
AQUA 3.7 03:20:35 10° NNE 03:25:19 86° NNW 03:25:19 86° NNW
Cosmos 967 Rocket 4.4 03:24:54 62° SSW 03:26:02 81° ESE 03:32:23 10° NE
Lacrosse 5 4.3 03:24:48 10° NW 03:28:39 21° N 03:32:29 10° ENE
Cosmos 2221 3.8 03:28:12 32° ESE 03:29:01 34° E 03:32:57 10° NNE
Spot 4 Rocket 4.3 03:25:34 10° NNE 03:30:42 62° ESE 03:31:41 51° SSE
Cosmos 1943 Rocket 2.0 03:27:54 10° NNW 03:33:22 66° WSW 03:33:27 66° WSW
Cosmos 1842 Rocket 3.5 03:33:45 77° N 03:33:45 77° N 03:37:48 10° N
Cosmos 2098 Rocket 4.0 03:32:17 41° SSE 03:34:25 66° E 03:39:41 10° NNE
Cosmos 2369 Rocket 3.2 03:32:46 10° NW 03:36:31 31° WNW 03:36:31 31° WNW
CBERS-1 4.0 03:33:23 10° N 03:38:25 61° WNW 03:38:48 59° W
SL-08 R/B 4.0 03:43:12 38° WNW 03:43:12 38° WNW 03:46:46 10° NNW
IRS-P3 4.4 03:39:07 10° N 03:44:15 50° WNW 03:44:53 47° W
Cosmos 1242 Rocket 3.2 03:45:16 51° N 03:45:16 51° N 03:48:02 10° N
SL-16 R/B 2.4 03:43:02 45° S 03:45:01 72° WSW 03:51:15 10° NNW
Cosmos 1656 Rocket 3.9 03:39:33 10° NNW 03:45:16 71° ENE 03:50:56 10° SSE
Cosmos 1400 Rocket 3.9 03:41:44 10° N 03:45:28 41° ENE 03:46:58 28° SE
Cosmos 1743 Rocket 4.2 03:41:34 10° NNW 03:45:02 42° WNW 03:45:02 42° WNW
Cosmos 2058 3.0 03:43:06 10° NNW 03:46:41 62° NW 03:46:41 62° NW
ADEOS Rocket 3.2 03:42:05 10° N 03:47:20 45° WNW 03:48:10 42° W
Resurs 1-4 Rocket 2.0 03:43:52 10° NNE 03:49:09 89° WNW 03:50:25 54° SSW
Cosmos 1943 3.8 03:48:57 37° W 03:50:06 41° WNW 03:55:29 10° NNE
UNKNOWN OBJECT B 3.9 03:46:39 10° NNE 03:50:30 40° E 03:51:33 33° SE
Cosmos 372 Rocket 4.2 03:45:49 10° NNW 03:50:58 68° ENE 03:55:27 14° SSE
CZ-2D R/B 2.0 03:47:42 10° NNE 03:53:08 85° WNW 03:54:33 51° SSW
Cosmos 1763 Rocket 3.9 03:53:58 42° W 03:54:35 45° WNW 03:59:28 10° N
Cosmos 2123 Rocket 3.9 03:50:21 10° N 03:56:40 89° W 04:00:16 27° S
Cosmos 836 Rocket 4.5 03:55:47 49° S 03:57:15 83° ESE 04:02:35 10° NNE
Sich 1 4.4 03:55:45 10° N 03:59:52 37° ENE 04:03:55 10° SE
MOZ.5/SAFIR/RUBIN 5/SL-8 3.8 03:57:45 32° SSE 03:59:55 77° ENE 04:04:37 10° N
Cosmos 1821 Rocket 4.1 03:58:40 43° SW 04:00:38 62° WNW 04:06:49 10° N
Cosmos 304 Rocket 3.8 04:00:47 56° WSW 04:01:32 65° WNW 04:06:19 10° NNE
UNK 4.1 04:03:24 45° W 04:03:24 45° W 04:07:35 10° NNW
Cosmos 1703 3.9 04:00:07 10° NNW 04:03:09 41° WNW 04:03:09 41° WNW
Cosmos 540 Rocket 3.4 04:02:33 47° SSW 04:04:05 86° ESE 04:09:13 10° NNE
Cosmos 2151 3.7 04:01:55 10° NNW 04:05:16 38° WNW 04:05:16 38° WNW
Cosmos 1125 Rocket 3.4 04:01:07 10° NNW 04:06:20 77° WSW 04:09:24 25° S
Cosmos 1626 3.5 04:03:11 10° NNW 04:05:25 28° NW 04:05:25 28° NW
CZ-2D R/B 3.7 04:08:47 10° NNE 04:12:47 63° E 04:14:08 38° SSE
BREEZE M DEB (TANK) 3.2 04:17:34 31° E 04:17:34 31° E 04:18:53 10° ESE
BREEZE-M DEB (TANK) 2.7 04:15:48 37° WNW 04:17:02 72° N 04:23:34 10° E
Cosmos 1934 Rocket 4.0 04:16:37 35° SW 04:19:01 57° WNW 04:25:00 10° N
Cosmos 1726 2.8 04:19:43 28° SSE 04:21:20 51° E 04:24:57 10° NNE
MOS 1 Rocket 3.4 04:20:44 10° N 04:24:53 49° WNW 04:25:59 39° WSW
Cosmos 1633 Rocket 3.6 04:21:09 10° N 04:25:29 57° E 04:29:46 10° SSE
ERBS 2.4 04:22:09 10° NW 04:25:36 77° NE 04:29:02 10° SE
Cosmos 1605 Rocket 4.0 04:25:36 26° SSW 04:29:20 71° W 04:35:46 10° N
USA 161 2.1 04:33:37 36° E 04:33:48 37° ENE 04:35:45 10° N
COSMOS 2406 3.2 04:32:54 26° SSW 04:36:14 88° ESE 04:41:58 10° NNE
Cosmos 1908 3.8 04:37:59 35° WSW 04:38:39 38° WNW 04:42:17 10° N
ARIANE 5 R/B 3.3 04:36:23 10° N 04:41:11 38° WNW 04:43:27 25° WSW
EP 1 4.0 04:42:08 67° W 04:42:20 74° NW 04:44:58 10° NE
ADEOS II 2.8 04:38:15 10° NNE 04:43:24 52° E 04:48:29 10° S
Cosmos 1315 Rocket 2.7 04:42:30 10° NNW 04:46:35 75° W 04:50:22 11° S
USA 229 DEB 3.8 04:43:45 10° NW 04:50:46 59° WSW 04:57:55 10° SSE
Cosmos 1328 Rocket 3.9 04:46:40 10° S 04:50:51 64° E 04:55:09 10° NNE
USA 229 3.8 04:43:52 10° NW 04:50:53 60° WSW 04:58:01 10° SSE
SL-27 R/B 2.5 04:51:05 23° S 04:53:00 73° ESE 04:56:26 10° NNE
Cosmos 1300 2.6 04:51:35 19° S 04:54:14 85° W 04:58:05 10° N
NOSS 3-1 (A) 4.4 04:48:28 10° NW 04:55:57 69° NE 05:04:16 10° SE
Cosmos 1666 Rocket 3.7 04:52:23 10° NNW 04:56:43 54° W 05:00:49 11° S
Cosmos 1805 Rocket 4.3 04:54:55 10° NNW 04:58:55 33° W 05:01:10 21° SW
Cosmos 1802 Rocket 4.3 04:53:20 10° S 04:59:27 70° E 05:05:42 10° NNE
PSLV R/B 4.4 04:55:58 10° NNE 05:00:13 49° E 05:04:23 10° S
CZ-4B R/B 3.7 04:58:39 10° NNE 05:03:02 59° E 05:07:29 10° S
Cosmos 2100 Rocket 4.0 04:57:52 10° S 05:04:14 86° W 05:10:40 10° N
Cosmos 1933 Rocket 3.9 05:01:07 10° N 05:05:35 69° E 05:10:02 10° SSE
Okean O Rocket 2.4 05:01:49 10° NNE 05:06:10 52° E 05:10:28 10° S
Cosmos 2221 4.0 05:05:05 18° WSW 05:06:41 22° WNW 05:10:05 10° NNW
PSLV R/B 3.6 05:05:34 25° WSW 05:07:02 45° S 05:10:11 10° ESE
OPS 8737 4.4 05:05:17 21° SW 05:07:31 83° NW 05:10:53 10° NE
PSLV R/B 4.1 05:05:08 10° NNE 05:09:17 78° ESE 05:13:26 10° S
Cosmos 2285 Rocket 4.2 05:04:45 16° SW 05:09:47 58° WNW 05:16:07 10° NNE
Cosmos 1455 4.1 05:08:14 10° SSE 05:11:34 31° E 05:14:55 10° NNE
Lacrosse 5 3.0 05:07:49 10° NW 05:12:43 46° NNE 05:17:35 10° ESE
Abrixas 2.3 05:11:46 11° WNW 05:14:16 72° NNE 05:16:54 10° ESE
Meteor 2-10 4.2 05:10:20 10° SSW 05:16:03 74° W 05:21:45 10° N
Cosmos 1697 Rocket 4.3 05:15:26 10° NNW 05:20:46 40° ENE 05:26:04 10° SE
Meteor 2-3 Rocket 3.9 05:20:22 10° N 05:26:02 83° E 05:31:43 10° SSE
USA 234 4.2 05:20:05 10° ENE 05:26:17 43° SE 05:32:26 10° SSW
NOSS 3-1 (C) 4.1 05:19:13 10° NW 05:26:46 70° WSW 05:35:06 10° SSE
MOS 1-B 4.5 05:21:45 10° N 05:27:29 60° WNW 05:33:10 10° SSW
Cosmos 773 Rocket 4.0 05:22:56 10° SSW 05:28:13 88° WNW 05:33:33 10° NNE
Resurs 1-4 Rocket 4.0 05:25:37 10° NNW 05:28:13 14° WNW 05:30:50 10° W
SL-16 R/B 4.3 05:28:17 10° W 05:29:41 11° W 05:31:05 10° WNW
Cosmos 292 Rocket 4.4 05:25:56 13° SW 05:29:57 40° WNW 05:34:30 10° N
Cosmos 482 Debris 3.6 05:28:53 10° WNW 05:31:18 82° NNE 05:35:08 10° ESE
Cosmos 1151 Rocket 3.0 05:27:15 10° S 05:31:34 81° W 05:35:53 10° N
CZ-2D R/B 4.1 05:29:47 10° NNW 05:32:21 14° NW 05:34:55 10° W
Cosmos 2173 Rocket 4.2 05:27:44 10° SSW 05:33:54 57° WNW 05:40:11 10° N
Cosmos 2082 Rocket 3.2 05:28:54 10° S 05:34:12 46° ESE 05:39:34 10° NE
Sich 1 4.4 05:34:04 10° NW 05:37:17 20° W 05:40:28 10° SW
Cosmos 2228 Rocket 3.6 05:38:56 10° SSW 05:43:10 41° WNW 05:47:24 10° N
PAYLOAD B 4.3 05:40:44 10° N 05:46:21 74° WNW 05:51:54 10° SSW
CZ-4B R/B 3.2 05:41:36 10° NNE 05:47:09 81° WNW 05:52:32 10° SSW
Meteor PRIRODA 3.8 05:44:26 10° NNE 05:48:07 78° ESE 05:51:46 10° S
Cosmos 1892 2.8 05:44:55 10° NNW 05:48:39 53° W 05:52:23 10° S
Cosmos 1470 Rocket 4.2 05:44:57 10° NNW 05:48:52 34° W 05:52:47 10° SSW
CZ-2C R/B 3.6 05:46:44 10° SSE 05:51:09 82° WSW 05:55:38 10° NNW
Landsat 4 3.9 05:47:56 10° S 05:51:32 48° W 05:55:12 10° NNW
Meteor 1-27 4.3 05:46:34 10° SSW 05:52:13 68° WNW 05:57:51 10° N
Shenzhou-11 Module 4.2 05:50:53 10° SSW 05:53:07 18° SSE 05:55:22 10° ESE
IRS-1C Rocket 4.1 05:50:36 10° N 05:55:52 72° WNW 06:01:06 10° SSW
Cosmos 2369 3.7 05:51:40 10° NNW 05:57:16 62° WSW 06:02:49 10° S
